Theta_e
295 296 294 293 293 293 292 292 292 293 294 295 298 297 295 294 293 293 292 292 292 291 292 293 294 295 298 299 301 303 311 314 318 323 328 333 335 334 334 334 335 334 335 335
296 294 294 293 292 292 293 292 292 293 294 293 296 295 295 293 293 292 291 291 291 290 291 292 292 294 295 296 297 300 304 309 313 317 323 327 331 333 334 334 334 335 333 335
295 294 293 292 292 292 293 293 293 292 292 293 294 295 295 294 292 291 291 291 290 290 290 291 292 292 293 294 295 296 299 304 309 313 319 324 329 333 334 333 333 333 334 335
294 293 293 292 292 292 293 294 293 293 292 294 295 296 293 293 293 291 291 290 290 290 289 290 291 291 292 292 293 295 297 301 306 311 315 318 324 330 331 334 333 333 332 333
293 292 292 292 292 292 293 293 293 294 293 293 295 295 292 291 291 292 291 290 290 290 289 289 290 290 291 292 292 293 295 298 302 307 310 314 319 325 331 333 333 334 333 333
293 292 292 292 292 292 292 294 295 296 295 294 295 294 291 292 292 291 291 290 290 290 290 290 290 290 290 291 292 292 293 295 299 303 307 310 315 321 328 331 333 330 333 332
291 292 292 292 292 293 293 294 294 294 297 294 293 291 290 291 291 291 290 290 290 290 290 290 290 289 290 290 291 291 292 294 297 299 303 306 311 317 321 327 330 330 331 332
291 292 292 292 292 291 292 293 295 295 296 295 291 290 290 290 289 289 289 289 289 289 289 290 290 290 289 289 290 290 291 292 296 298 300 303 309 311 316 323 327 329 330 331
291 291 291 291 292 291 292 292 293 295 296 292 291 291 291 290 289 289 289 289 289 289 289 289 289 290 290 289 289 289 290 292 293 296 298 300 304 308 313 319 324 327 329 331
291 291 291 292 291 291 291 292 293 294 292 293 291 290 290 289 289 289 289 289 289 288 288 288 289 289 289 289 289 289 289 291 292 294 296 297 300 304 309 315 319 324 327 329
291 291 291 292 291 291 291 290 292 293 292 292 291 290 290 290 290 289 289 288 288 288 288 288 288 288 288 289 289 289 289 290 292 293 294 296 298 301 305 310 315 321 323 327
291 291 291 291 291 291 290 290 291 291 289 290 290 290 290 290 289 288 288 288 288 288 288 288 288 288 287 288 289 289 289 289 290 291 292 294 297 298 302 304 309 312 319 324
292 291 291 291 291 292 291 290 290 290 287 288 289 288 289 289 288 288 288 288 288 288 287 287 287 287 287 287 288 289 289 289 289 290 291 293 294 297 298 300 304 311 316 320
292 291 291 291 291 292 292 290 289 288 289 289 289 288 289 289 288 287 287 288 287 287 287 287 287 287 286 287 287 288 288 289 289 289 289 291 294 294 297 298 300 305 311 317
292 292 291 292 292 293 290 290 290 289 287 289 288 287 288 288 286 286 287 288 287 287 286 286 287 286 286 286 287 288 288 289 289 289 289 290 293 294 295 297 297 301 305 312
291 294 292 291 292 293 292 292 291 290 286 284 286 288 289 287 288 287 288 287 287 287 286 286 286 286 286 286 287 288 288 288 289 289 289 289 291 294 294 296 295 298 303 307
293 292 291 291 292 291 292 292 292 290 289 288 289 291 286 288 288 287 287 287 287 287 286 285 285 285 285 286 286 287 287 288 289 289 289 288 289 293 294 295 294 296 300 304
293 292 291 291 291 290 290 289 290 290 290 288 288 287 286 287 287 288 288 287 287 286 286 285 285 285 285 285 286 286 286 287 288 288 288 288 289 291 294 294 294 295 297 300
292 291 291 291 290 290 290 290 290 290 290 290 290 289 288 288 288 288 288 287 287 286 285 285 285 285 285 285 285 285 286 285 286 288 288 288 288 289 294 294 294 294 295 298
291 291 291 290 290 290 289 289 289 289 290 289 289 289 289 288 289 289 288 287 286 286 285 285 285 284 284 284 284 284 285 285 286 287 287 288 288 289 291 293 293 294 294 294
292 291 291 290 291 290 289 289 289 290 290 290 289 289 289 289 288 288 288 287 286 285 285 285 284 284 284 284 284 284 285 285 286 286 287 287 288 288 290 293 293 294 294 294
292 292 291 290 289 290 288 290 290 290 290 290 290 289 289 288 288 288 287 286 285 284 284 284 284 283 284 284 284 284 285 285 286 286 286 287 287 288 289 291 293 293 294 294
292 292 292 291 291 289 290 290 290 290 290 290 290 289 288 287 287 286 286 285 284 284 284 284 283 283 283 284 284 284 285 286 286 286 286 286 287 288 289 290 291 293 292 293
291 290 291 291 291 290 290 289 289 289 289 289 290 287 287 287 286 285 285 284 284 284 284 283 283 283 283 283 284 284 284 284 285 285 286 286 286 287 288 289 290 290 291 291
291 290 291 291 291 290 290 289 289 289 289 289 288 287 286 286 285 284 284 284 284 283 283 283 283 283 283 282 283 283 283 283 284 285 285 285 286 286 287 288 288 289 289 289
290 291 291 292 290 290 290 289 288 288 288 287 287 286 286 285 284 284 284 283 283 282 282 282 282 282 281 281 281 282 283 283 282 283 284 286 286 286 287 287 288 288 288 288
Wind_Speed
16 15 15 13 13 7 8 12 17 10 4 11 6 7 11 17 22 24 25 26 26 28 28 27 28 27 26 25 24 24 20 16 15 13 18 18 24 30 33 30 36 25 36 39
8 15 9 7 12 12 12 13 11 8 7 11 4 1 10 18 21 22 24 26 28 28 30 31 31 29 27 27 27 25 22 19 17 12 10 15 21 28 29 31 30 30 31 41
15 5 9 9 8 13 12 7 13 15 15 11 10 2 9 16 20 22 24 24 26 28 30 30 31 32 29 29 29 27 26 22 18 16 13 14 13 19 24 29 31 32 30 33
9 5 10 10 13 13 8 16 18 18 8 3 8 3 15 15 14 23 26 27 27 29 28 30 31 31 33 31 28 27 26 23 19 17 14 10 11 16 19 27 32 34 30 35
3 8 8 12 13 11 9 22 20 13 7 4 3 3 7 11 15 17 24 27 26 27 27 29 30 29 30 31 31 28 27 23 20 17 15 12 9 12 20 19 29 33 29 36
5 5 3 10 17 5 15 20 5 6 4 6 14 3 10 13 15 18 23 24 25 27 27 28 29 30 31 31 33 32 31 26 22 17 16 12 9 12 14 18 23 30 33 30
4 5 3 17 13 11 22 16 6 6 3 4 8 9 4 12 16 16 21 24 24 25 28 31 33 33 33 34 34 35 33 30 26 21 17 14 11 10 14 11 20 20 33 31
8 5 9 13 5 10 12 6 4 6 5 3 8 4 3 9 14 18 20 23 25 26 27 29 30 30 33 32 34 35 35 33 27 25 19 16 12 11 13 16 14 19 23 33
7 1 3 7 4 7 9 11 9 5 3 1 3 3 7 13 15 20 22 23 24 26 27 28 29 28 30 32 32 36 35 35 32 26 23 18 14 12 11 14 22 23 22 28
2 4 2 4 5 4 4 8 8 5 6 4 3 1 5 13 16 18 22 24 25 25 26 29 29 30 30 30 29 33 35 34 34 29 23 23 18 14 11 11 15 23 27 22
1 2 10 2 5 7 6 5 4 2 3 4 4 0 4 8 13 15 20 23 25 25 25 28 29 30 30 28 28 29 32 34 36 34 28 24 21 15 12 11 15 18 25 21
0 0 7 6 4 0 3 5 4 3 7 3 2 2 4 9 14 15 19 21 23 24 23 27 27 30 31 29 28 29 30 31 33 32 31 30 25 17 13 15 12 13 17 23
1 2 5 3 3 1 2 4 6 2 1 1 3 3 1 10 14 17 17 23 25 24 24 27 28 30 31 30 28 29 29 29 31 33 30 32 32 25 18 18 17 15 13 20
3 2 2 6 13 3 4 2 4 2 3 3 3 9 10 10 10 19 21 25 26 27 25 27 28 32 32 30 29 28 29 29 29 32 32 31 34 32 27 21 20 15 15 15
1 4 4 9 13 8 4 5 4 3 2 4 5 6 11 11 11 19 21 26 27 29 28 29 28 33 33 31 29 28 28 27 27 30 33 31 33 32 33 26 24 18 14 14
0 3 3 12 8 6 10 8 9 9 3 8 10 12 9 12 14 17 22 26 25 28 26 28 30 30 32 30 29 27 27 28 27 29 32 31 33 34 32 32 30 24 15 13
2 2 6 4 2 2 7 7 9 6 6 5 7 11 4 10 17 19 22 25 24 26 24 27 28 29 30 29 27 27 28 27 27 28 30 31 32 33 32 33 32 30 20 13
2 2 2 5 3 2 1 3 5 8 12 10 11 11 16 17 18 18 20 23 26 23 23 27 27 30 29 27 26 26 26 26 26 26 28 30 32 32 32 30 32 31 26 18
12 1 2 3 4 11 4 2 3 4 15 13 13 14 14 13 11 15 20 19 23 20 21 24 25 29 27 25 26 26 23 24 24 25 26 28 28 29 30 28 30 31 29 24
6 3 3 1 4 4 1 1 4 3 10 3 3 10 14 11 11 13 21 21 20 18 21 24 26 28 24 24 24 23 22 22 22 23 25 25 25 26 26 28 27 28 28 29
3 3 5 5 5 7 5 5 4 4 4 10 10 14 11 7 12 23 25 20 16 19 21 23 27 25 23 22 22 21 21 21 22 21 22 23 23 24 24 24 25 28 29 29
4 4 3 3 3 6 11 3 3 7 16 18 18 14 15 15 19 21 20 18 17 19 21 24 24 23 21 19 19 20 20 22 22 22 22 23 22 23 24 24 25 28 28 29
4 6 3 8 5 4 11 9 14 16 18 19 15 17 13 15 18 19 17 17 17 18 21 21 21 21 19 18 18 19 22 22 22 21 22 23 22 22 23 24 23 24 31 28
5 8 4 2 6 19 16 11 16 17 17 15 13 11 15 15 18 16 16 17 18 19 20 19 18 18 19 18 17 17 19 21 22 21 21 21 22 21 20 22 23 22 23 28
6 11 8 8 13 10 15 11 12 12 9 6 8 13 14 17 14 15 17 16 18 19 19 17 16 15 16 16 17 19 21 20 22 23 22 20 19 20 20 17 18 21 21 22
13 7 7 6 11 6 7 7 6 4 6 9 11 13 13 13 16 18 14 16 17 18 17 16 16 15 15 17 19 21 21 22 22 21 20 20 19 18 18 17 17 15 16 19
Wind_Direction
41 52 42 43 42 30 334 310 310 323 332 5 70 68 44 32 29 20 12 6 8 5 356 357 355 354 350 349 350 354 350 343 329 281 253 244 242 246 247 248 242 248 238 235
63 58 40 29 28 8 339 323 324 310 319 324 208 302 52 40 31 22 11 5 2 3 3 1 1 359 357 352 350 351 352 351 339 323 291 270 252 241 252 248 249 240 243 241
79 70 14 26 16 358 339 304 308 287 316 275 276 88 27 22 24 19 18 12 8 5 4 4 3 3 358 356 354 352 351 350 346 333 308 265 265 241 257 249 246 249 242 231
70 13 10 3 2 353 324 330 306 299 303 290 33 162 34 15 16 14 8 7 8 7 7 8 7 6 4 358 355 354 351 350 351 339 328 316 266 247 241 247 253 249 242 251
55 15 30 352 344 333 314 319 308 302 264 278 13 185 31 27 10 9 2 3 4 4 5 7 9 7 5 4 1 359 355 352 351 349 340 323 293 248 232 239 251 241 252 243
82 17 46 351 330 334 327 331 34 100 129 37 1 167 29 356 7 0 359 3 3 4 5 8 10 10 9 7 6 3 1 0 352 352 346 333 317 268 236 225 235 254 246 240
347 39 7 13 358 346 358 1 350 7 52 53 24 65 30 354 1 350 352 356 359 1 5 7 8 8 7 8 7 6 2 2 2 351 349 344 323 305 261 228 226 237 245 242
19 8 18 358 20 331 345 360 7 315 12 44 31 93 38 0 352 352 356 356 360 1 1 2 1 4 6 5 6 6 4 2 4 359 348 345 333 323 292 243 222 227 235 250
349 356 310 350 4 4 340 9 306 268 176 126 94 17 257 355 356 356 357 358 359 1 3 0 359 1 0 1 2 7 4 4 4 3 356 344 335 332 322 267 237 234 237 242
34 317 344 9 3 24 10 328 354 7 351 339 94 20 336 343 349 350 350 352 355 357 360 2 0 359 356 355 358 6 6 4 4 1 1 354 339 332 322 300 259 243 238 234
133 355 352 358 31 12 12 8 349 260 5 333 313 213 237 326 339 344 345 350 353 354 355 356 356 357 356 355 357 1 3 4 7 10 2 0 350 333 324 325 280 252 239 217
92 271 336 343 131 116 105 360 348 339 346 358 334 277 286 325 338 342 338 342 346 350 350 354 353 354 355 355 356 356 358 0 4 7 5 6 356 344 329 324 306 290 256 228
150 39 333 336 224 89 43 348 347 277 156 332 324 354 313 331 333 332 334 341 342 342 346 350 352 352 351 351 351 352 355 357 1 3 3 5 7 358 343 335 324 303 276 239
149 159 204 295 296 289 266 286 349 337 307 318 265 294 304 321 311 323 336 343 343 340 342 347 349 348 348 348 348 348 350 357 360 0 2 2 8 8 1 348 336 318 293 267
118 264 226 259 279 253 233 240 258 266 241 250 308 254 282 287 282 313 327 337 338 338 341 348 347 345 346 346 347 348 354 358 1 1 0 359 4 8 7 360 349 333 307 286
57 278 295 305 322 219 258 257 242 243 214 258 266 277 265 281 298 307 328 334 333 334 338 345 344 344 343 345 346 347 353 360 2 3 2 358 2 8 8 6 2 347 329 302
292 299 318 296 22 266 279 271 224 220 215 220 267 287 280 295 303 314 319 327 330 331 336 341 340 340 340 342 344 346 350 354 358 2 3 0 359 6 8 10 11 2 357 333
239 248 259 306 328 287 218 236 239 236 264 229 264 266 264 276 298 309 334 325 326 327 334 338 337 337 338 337 339 339 343 350 353 354 359 2 2 4 8 10 15 11 12 5
208 173 296 290 293 287 277 218 232 223 297 293 275 286 277 295 303 307 331 324 323 325 331 332 334 334 334 337 336 338 339 343 349 354 355 359 1 3 8 13 12 18 23 23
165 242 224 211 287 264 215 316 198 173 296 323 251 306 298 312 312 324 326 325 325 325 331 332 333 333 335 336 337 339 341 342 348 353 353 356 359 4 5 10 14 20 26 28
211 197 232 233 248 275 233 215 173 297 322 318 311 313 295 281 292 316 321 324 322 330 332 334 333 333 335 337 338 341 344 346 348 348 350 354 360 4 7 7 21 18 25 34
210 186 205 179 236 271 189 199 219 278 297 295 303 302 304 298 307 316 321 326 330 333 335 335 335 336 339 343 346 348 350 348 347 351 352 355 357 4 9 8 20 16 20 28
227 206 195 206 228 193 194 260 274 286 284 294 297 304 306 304 313 323 326 330 332 334 334 336 338 338 343 349 352 351 357 353 353 351 354 358 360 4 11 13 12 16 18 22
225 183 228 223 232 236 254 272 289 300 295 297 301 306 314 311 323 327 331 332 332 333 335 336 339 341 343 348 351 351 353 355 357 354 352 357 3 4 10 18 17 16 10 16
215 164 217 249 259 246 259 270 296 305 307 314 310 320 320 322 327 332 331 334 334 333 335 337 338 341 342 344 346 347 348 348 351 356 356 354 357 2 6 12 22 22 22 21
192 193 188 225 200 203 246 280 282 267 297 313 317 321 325 327 328 330 335 337 336 337 339 340 339 339 340 339 336 334 334 336 338 341 349 356 360 359 0 360 358 14 18 17